Track SECOR 5 (EGRS 5) now! 10-day predictions SECOR 5 (EGRS 5) is classified as:
1 01506U 65063A 21023.96800081 -.00000056 00000-0 -15156-3 0 9996 2 01506 69.2381 347.0827 0787866 287.8388 124.8990 11.78638836386089